Location: Fons
(53.1549°N, 5.7121°E)
Time: 00:14:24
(UTC+00:00)

Daily predictions for brighter satellites

Satellite Brightness Start Highest point End
(mag) Time Altitude Azimuth Time Altitude Azimuth Time Altitude Azimuth
SL-16 R/B 4.0 00:24:54 31° NE 00:24:54 31° NE 00:29:58 10° N
Cosmos 2360 Rocket 4.3 00:21:28 10° NNW 00:23:33 21° NNW 00:23:33 21° NNW
CZ-2D R/B 4.4 00:28:02 10° NE 00:30:15 19° ENE 00:30:15 19° ENE
Cosmos 2082 Rocket 3.8 00:50:59 31° NNE 00:50:59 31° NNE 00:53:50 10° NNE
Cosmos 2333 Rocket 4.2 00:52:51 10° NNW 00:54:48 21° NNW 00:54:48 21° NNW
ATLAS 5 CENTAUR R/B 4.4 01:05:49 14° NE 01:05:49 14° NE 01:06:31 10° NE
Cosmos 2219 Rocket 3.9 01:06:17 10° NNW 01:09:04 27° N 01:09:04 27° N
ATLAS 3B R/B 4.2 01:09:16 10° NW 01:27:32 - SE 01:12:35 29° NW
USA 215 3.7 01:11:03 10° E 01:16:10 55° ENE 01:16:10 55° ENE
ATLAS 2AS CENTAUR R/B 3.2 01:22:05 57° E 01:22:05 57° E 01:28:06 10° NE
USA 229 DEB 4.3 01:32:35 10° NW 01:39:38 59° NNE 01:47:20 10° ESE
USA 229 4.3 01:32:41 10° NW 01:39:43 58° NNE 01:47:24 10° ESE
Resurs 1-4 Rocket 3.1 01:40:11 10° NNE 01:43:37 42° NNE 01:43:37 42° NNE
S3M 4.2 01:40:29 10° N 01:46:24 67° NE 01:46:24 67° NE
NOSS 3-4 (A) 4.5 01:47:57 37° NNW 01:48:24 37° NNW 01:54:33 10° NE
NOSS 3-4 (C) 4.4 01:48:03 37° NNW 01:48:30 37° NNW 01:54:39 10° NE
NOSS 3-1 (A) 3.8 01:55:41 82° WNW 01:56:05 87° SW 02:04:43 10° SE
NPP 4.4 01:51:00 10° NNE 01:54:48 47° N 01:54:48 47° N
ATLAS CENTAUR R/B 4.1 01:59:19 14° NNE 01:59:19 14° NNE 02:00:38 10° NE
USA 281 3.4 02:00:00 10° NNE 02:06:29 59° ESE 02:07:16 56° SE
ADEOS II 2.6 02:02:25 10° NNE 02:06:36 56° NNE 02:06:36 56° NNE
SL-16 R/B 3.2 02:10:00 42° NW 02:10:00 42° NW 02:14:04 10° NNW
Cosmos 2266 Rocket 4.2 02:09:14 65° SE 02:09:50 69° E 02:16:14 10° NNE
Cosmos 2315 Rocket 4.2 02:05:07 10° N 02:11:31 70° ENE 02:13:09 50° SE
CZ-2D R/B 2.8 02:07:30 10° NNE 02:11:32 48° N 02:11:32 48° N
CZ-2C R/B 3.3 02:19:07 46° NNW 02:19:07 46° NNW 02:22:51 10° NNW
MSX 3.9 02:12:12 10° NNE 02:17:14 66° NNW 02:17:14 66° NNW
IDEFIX/ARIANE 42P 3.3 02:16:03 10° N 02:19:53 45° NNW 02:19:53 45° NNW
Cosmos 292 Rocket 4.4 02:23:49 55° NE 02:23:49 55° NE 02:27:39 10° NNE
Cosmos 2237 Rocket 3.6 02:18:54 10° NNW 02:24:13 38° NE 02:29:29 10° ESE
Cosmos 2221 3.8 02:26:56 37° NNE 02:26:56 37° NNE 02:29:37 10° NNE
Lacrosse 5 rocket 3.0 02:31:30 29° E 02:31:30 29° E 02:33:43 10° ENE
CZ-4 R/B 4.2 02:25:20 10° NNE 02:29:31 63° ENE 02:29:31 63° ENE
Lacrosse 4 Rocket 3.5 02:33:06 20° NNW 02:33:06 20° NNW 02:35:38 10° NNE
Cosmos 2082 Rocket 3.6 02:32:50 26° NW 02:32:59 26° NW 02:37:42 10° NNE
SL-16 R/B 4.4 02:28:40 10° NNW 02:33:08 23° NNE 02:37:35 10° E
ATLAS CENTAUR R/B 3.4 02:34:11 58° WSW 02:35:57 84° NNW 02:48:56 10° ENE
Cosmos 2322 4.4 02:33:04 10° NNW 02:43:22 16° SSE 02:44:29 10° SSE
Cosmos 1500 Rocket 4.2 02:34:35 10° N 02:38:54 53° ENE 02:39:12 52° E
FENGYUN 3A 3.5 02:39:12 10° NNE 02:44:37 87° WNW 02:44:55 80° SW
NOSS 0 Rocket 4.1 02:39:42 10° NNW 02:46:00 73° NE 02:52:15 10° SE
COSMOS 2428 2.5 02:41:40 10° NNW 02:47:24 85° WSW 02:53:06 10° SSE
ATLAS 5 CENTAUR R/B 3.4 02:46:58 21° NNW 02:47:46 22° N 02:51:29 10° NE
SL-27 R/B 4.5 02:50:53 24° NE 02:50:53 24° NE 02:52:18 10° NNE
Timation 1 Rocket 4.2 02:49:01 66° SSW 02:49:56 89° SE 02:55:58 10° NE
Cosmos 44 4.5 02:49:57 34° NW 02:50:26 35° NNW 02:55:24 10° NE
CZ-2C R/B 3.3 02:49:58 10° NNE 02:54:33 44° E 02:56:49 25° SSE
Cosmos 2219 Rocket 4.4 02:50:20 10° NW 02:50:41 12° NW 02:50:41 12° NW
ALOS 2.1 02:51:36 10° NNE 02:56:17 89° WNW 02:56:20 88° SW
Cosmos 1937 Rocket 4.5 02:59:26 32° NW 02:59:26 32° NW 03:03:50 10° NNE
USA 215 3.1 02:54:06 10° SE 03:00:38 71° SSW 03:03:31 36° WNW
Cosmos 1842 Rocket 3.6 03:09:34 65° NW 03:09:34 65° NW 03:13:48 10° N
Cosmos 2084 Rocket 3.5 03:11:36 57° NNW 03:11:36 57° NNW 03:15:11 10° NE
ATLAS 2AS CENTAUR R/B 3.2 03:09:31 37° W 03:12:13 53° NNW 03:19:10 10° NE
Meteor 1-26 Rocket 4.4 03:11:34 50° W 03:12:17 54° WNW 03:17:49 10° N
Cosmos 1655 Rocket 4.1 03:13:15 44° SW 03:15:05 60° WNW 03:21:26 10° N
Cosmos 1833 4.3 03:14:15 50° W 03:15:20 59° NW 03:20:54 10° NNE
CZ-2C R/B 3.2 03:11:54 10° NNE 03:17:41 78° WNW 03:19:54 38° SSW
SL-08 ROCKET BODY 4.4 03:16:47 43° SW 03:18:36 60° WNW 03:24:37 10° N
Cosmos 2150 Rocket 4.4 03:16:29 26° S 03:19:27 62° ESE 03:24:39 10° NNE
Thor Agena Rocket 3.6 03:15:01 10° N 03:20:13 61° WNW 03:21:27 48° WSW
Resurs 1-4 Rocket 3.5 03:20:49 10° N 03:24:40 22° NW 03:24:40 22° NW
Helios 1A 4.2 03:21:56 10° SE 03:25:48 43° ENE 03:29:42 10° N
Cosmos 1743 Rocket 3.4 03:21:42 10° NNW 03:26:02 70° W 03:27:40 37° S
Meteor 1-11 Rocket 3.7 03:21:10 10° NNW 03:27:06 85° W 03:33:04 10° S
Cosmos 614 Rocket 4.1 03:22:04 10° NNW 03:27:13 74° ENE 03:32:23 10° SSE
Cosmos 1805 Rocket 3.4 03:24:06 10° NNW 03:28:26 70° W 03:30:45 27° S
Cosmos 1980 3.6 03:24:48 10° NNW 03:30:31 90° SW 03:36:11 10° SSE
USA 229 DEB 4.0 03:23:37 10° NW 03:30:47 58° SW 03:38:32 10° SSE
USA 229 3.9 03:23:43 10° NW 03:30:53 58° SW 03:38:37 10° SSE
Cosmos 1633 Rocket 4.1 03:30:19 10° N 03:34:35 47° ENE 03:38:51 10° SSE
Sich 1 2.9 03:32:57 10° NNW 03:37:15 62° W 03:41:10 12° S
ATLAS CENTAUR R/B 2.4 03:34:45 15° NNW 03:37:27 36° NE 03:40:48 10° ESE
Meteor 2-9 Rocket 4.4 03:33:39 10° NNW 03:39:34 80° ENE 03:45:21 10° SSE
Cosmos 1484 Rocket 4.0 03:36:16 10° NNE 03:39:42 39° E 03:43:08 10° S
Meteor 2-6 Rocket 4.1 03:38:04 32° SW 03:40:24 59° WNW 03:45:47 10° N
H-2A R/B 4.5 03:36:28 10° NE 03:40:54 25° E 03:45:15 10° SE
GP-B 3.0 03:38:17 18° S 03:41:36 73° W 03:46:03 10° N
YAOGAN 6 2.3 03:41:05 10° NNE 03:44:30 84° W 03:45:35 41° SSW
Cosmos 1244 Rocket 4.4 03:39:43 12° SSW 03:45:36 75° WNW 03:51:59 10° N
BlueWalker 3 4.1 03:48:24 13° S 03:48:24 13° S 03:49:07 10° S
ADEOS II 3.4 03:42:52 10° N 03:46:49 22° NW 03:47:29 22° WNW
Meteor 1-10 Rocket 4.1 03:44:44 14° SSW 03:49:32 77° WNW 03:55:07 10° NNE
USA 281 3.7 03:44:44 10° NNE 03:50:50 42° NW 03:54:08 25° W
IRS-1D 3.6 03:45:41 10° N 03:50:55 58° WNW 03:54:06 23° SW
CZ-2D R/B 3.8 03:48:48 10° NNW 03:51:59 16° NW 03:52:50 16° WNW
SL-16 R/B 4.4 03:55:06 12° WNW 03:55:06 12° WNW 03:55:50 10° NW
Envisat 2.9 03:48:07 10° NNE 03:53:13 75° WNW 03:57:47 13° SSW
CZ-2C R/B 4.4 04:00:38 14° WNW 04:00:38 14° WNW 04:01:55 10° NW
IDEFIX/ARIANE 42P 4.4 03:57:09 10° NNW 03:59:46 14° NW 04:00:39 13° WNW
TIMED 4.4 03:58:24 20° SSW 04:01:19 81° WNW 04:05:42 10° NNE
Cosmos 2297 Rocket 2.8 03:56:37 10° SSW 04:02:09 59° ESE 04:07:42 10° NE
Cosmos 2221 4.4 04:03:39 15° NW 04:03:39 15° NW 04:05:50 10° NNW
Cosmos 1536 3.3 04:01:38 10° NNW 04:05:12 35° W 04:07:16 20° SW
Cosmos 2237 Rocket 2.3 04:02:58 10° NW 04:08:32 55° WSW 04:14:02 10° S
Lacrosse 5 rocket 1.4 04:06:40 28° W 04:08:34 62° NNW 04:12:22 10° ENE
Cosmos 1125 Rocket 3.9 04:06:14 23° WSW 04:09:05 45° NW 04:14:05 10° NNE
METEOR-M 4.4 04:04:40 10° N 04:09:48 48° WNW 04:13:57 15° SW
Cosmos 1470 Rocket 4.0 04:06:58 10° N 04:11:27 68° ENE 04:15:54 10° SSE
Lacrosse 4 Rocket 3.9 04:10:37 10° NNW 04:12:18 12° N 04:14:00 10° NNE
Meteor 2-10 4.0 04:08:33 10° NNW 04:13:54 87° ENE 04:19:03 10° SSE
SL-16 R/B 2.5 04:12:33 10° NNW 04:18:16 72° NE 04:23:58 10° SE
Cosmos 2082 Rocket 4.4 04:16:27 10° NW 04:19:12 13° N 04:21:58 10° NNE
Okean 1 3.1 04:17:04 10° SSW 04:20:53 65° WNW 04:24:43 10° N
Cosmos 1726 1.8 04:17:58 10° NNW 04:21:24 78° W 04:24:50 10° S
Cosmos 1378 4.3 04:21:27 21° WNW 04:21:49 21° WNW 04:24:34 10° NNW
H-2A R/B 2.8 04:18:30 10° NNE 04:22:00 71° ESE 04:25:28 10° S
ERS-2 3.4 04:20:27 10° NNE 04:23:25 36° E 04:26:21 10° S
SL-27 R/B 4.3 04:23:28 13° NW 04:23:39 13° NW 04:25:20 10° NNW
Cosmos 1975 2.9 04:19:54 10° N 04:23:52 80° ENE 04:27:51 10° SSE
SL-08 R/B 3.8 04:19:08 10° SSE 04:23:55 67° ENE 04:28:48 10° N
COBE Rocket 4.1 04:21:00 10° N 04:25:40 51° WNW 04:30:26 10° SW
PAYLOAD A 4.5 04:23:14 10° N 04:27:44 38° WNW 04:32:20 10° SW
IRS-1C 4.3 04:23:55 10° NNE 04:29:17 78° ESE 04:34:37 10° SSW
Nadezhda 1 Rocket 4.2 04:24:06 10° NNW 04:30:08 49° W 04:36:03 10° SSW
COSMOS 2428 4.0 04:27:10 10° WNW 04:30:50 18° W 04:34:30 10° SW
CBERS-1 4.2 04:26:24 10° N 04:31:24 54° WNW 04:36:21 10° SW
Cosmos 2344 4.4 04:24:42 10° SSW 04:31:49 50° ESE 04:39:00 10° NE
CZ-2C R/B 3.1 04:28:24 10° N 04:32:36 31° WNW 04:36:09 13° WSW
ALOS 3.9 04:30:00 10° NNW 04:32:57 17° NW 04:34:42 14° W
ATLAS 5 CENTAUR R/B 3.3 04:29:10 10° NW 04:33:10 31° NNE 04:37:56 10° E
Cosmos 1151 Rocket 3.5 04:32:42 10° SW 04:36:49 41° WNW 04:41:00 10° N
Cosmos 407 Rocket 4.0 04:34:50 10° NNW 04:40:12 66° ENE 04:45:30 10° SE
Cosmos 1733 3.1 04:37:24 10° NNW 04:41:03 59° W 04:44:40 10° S
Cosmos 1666 Rocket 4.1 04:39:39 10° NNW 04:43:37 34° W 04:47:33 10° SSW
USA 215 4.2 04:38:58 10° S 04:44:25 28° SW 04:49:54 10° WNW
ARIANE 5 R/B 2.5 04:39:37 10° NNE 04:44:42 87° WNW 04:49:42 10° SSW
Cosmos 1515 Rocket 3.9 04:40:33 10° S 04:44:55 69° E 04:49:17 10° NNE
Helios 1B rocket 4.5 04:42:31 10° NNE 04:46:08 32° E 04:49:43 10° SSE
BREEZE-M DEB (TANK) 4.5 04:42:21 11° WSW 04:46:36 64° SSE 05:07:24 10° E
Cosmos 1328 Rocket 3.6 04:43:32 10° SSW 04:47:53 60° WNW 04:52:15 10° N
Cosmos 2227 Rocket 2.5 04:43:17 10° SSW 04:48:55 75° ESE 04:54:37 10° NE
COSMO-SKYMED 1 2.5 04:45:01 10° S 04:49:21 76° WSW 04:53:43 10° NNW
Cosmos 1933 Rocket 3.6 04:45:23 10° N 04:49:45 88° E 04:54:05 10° S
Cosmos 44 Rocket 3.4 04:44:50 10° SW 04:49:55 80° NW 04:55:10 10° NE
Genesis I 3.0 04:47:42 10° NW 04:51:25 69° SW 04:55:04 10° SE
Cosmos 2263 Rocket 4.3 04:47:16 10° SSE 04:52:07 31° ESE 04:56:58 10° NE
CZ-2D R/B 3.6 04:50:44 10° NNE 04:55:06 90° SW 04:59:28 10° SSW
NOSS 2-1 (C) 4.3 04:52:41 10° NW 04:56:14 48° NE 05:00:53 10° ESE
Meteor 1-27 Rocket 4.2 04:51:00 10° SW 04:56:18 40° WNW 05:01:44 10° N
NOSS 2-1 (D) 4.3 04:54:42 10° NW 04:58:15 49° NE 05:02:55 10° ESE
Helios 1A 4.0 04:57:54 10° SSW 05:01:17 24° W 05:04:40 10° NW
IRS-P3 4.1 04:58:06 10° NNE 05:03:26 72° WNW 05:08:45 10° SSW
ATLAS 2AS CENTAUR R/B 3.8 04:57:56 10° WNW 05:04:34 36° N 05:10:54 10° ENE
Cosmos 1805 3.5 05:04:11 10° NNW 05:07:49 44° W 05:11:25 10° SSW
Cosmos 1709 Rocket 4.2 05:02:41 10° SSW 05:08:57 57° WNW 05:15:14 10° N
Cosmos 1140 Rocket 3.6 05:06:48 10° NNW 05:11:58 61° WSW 05:17:08 10° S
